Weather Roundup
Issued by NWS Springfield, MO

Home | Current Version | Previous Version | Text Only | Print | Product List | Glossary On
Versions: 1 2 3 4 5 6 7 8 9 10 11 12 13 14 15 16 17 18 19 20 21 22 23 24 25 26 27 28 29 30 31 32 33 34 35 36 37 38 39 40 41 42 43 44 45 46 47 48 49 50
000
NZUS99 KSGF 300107
HRRSGF

HOURLY WEATHER
NATIONAL WEATHER SERVICE SPRINGFIELD MO
700 PM CST THU JAN 29 2015

......SGF CWA......

CITY           SKY/WX    TMP DP  RH WIND       PRES   REMARKS
SPRINGFIELD    CLEAR     35  27  72 NW10      30.42R WCI  27
JOPLIN         CLEAR     37  27  67 N5        30.47R WCI  33
WEST PLAINS    CLOUDY    39  27  62 NW10      30.39R WCI  32
ROLLA          CLOUDY    38  27  64 NW12G22   30.37R WCI  30
OSAGE BEACH    CLOUDY    39  25  56 NW7G16    30.42R WCI  34
BRANSON        PTCLDY    37  28  70 NW12      30.42R WCI  30

......SURROUNDING SGF CWA......

CITY           SKY/WX    TMP DP  RH WIND       PRES   REMARKS
CHANUTE        CLEAR     36  27  69 N9        30.48R WCI  29
PARSONS        CLEAR     38  28  67 N6        30.49R WCI  33
COFFEYVILLE    CLEAR     40  28  62 N9        30.48R WCI  34
EMPORIA        CLEAR     32  24  72 N6        30.48R WCI  26
GROVE OK       CLEAR     41  30  65 N7        30.48R
ROGERS AR      CLEAR     39  27  62 N7        30.44R WCI  34
SILOAM SPRINGS CLEAR     36  23  60 N8        30.46R WCI  29
HARRISON AR    PTCLDY    38  28  67 NW9       30.41R WCI  31
NEAR YELLVILLE MOCLDY    43  27  52 NW9       30.41R

......KANSAS AND MISSOURI......

CITY           SKY/WX    TMP DP  RH WIND       PRES   REMARKS
KANSAS CTY INT CLEAR     32  24  72 NW6       30.47R WCI  26
DOWNTOWN KC    CLEAR     37  24  59 N3        30.48R
COLUMBIA       CLOUDY    37  26  64 NW18G29   30.41R WCI  27
SEDALIA        CLOUDY    38  26  62 NW14      30.45R WCI  30
ST JOSEPH      CLEAR     31  23  72 NW5       30.50R WCI  26
ST LOUIS       CLOUDY    38  27  64 NW24G32   30.36R WCI  27
SPIRIT OF STL  CLOUDY    38  27  64 NW17G24   30.37R WCI  28
KIRKSVILLE     CLOUDY    34  23  64 NW16G25   30.42R WCI  24
WICHITA        CLEAR     43  25  49 N8        30.49R
TOPEKA         CLEAR     35  24  64 N7        30.51R WCI  29
OLATHE         CLEAR     37  24  59 N9        30.46R WCI  30

......TENNESSEE......

CITY           SKY/WX    TMP DP  RH WIND       PRES   REMARKS
MEMPHIS        CLOUDY    46  33  60 N21G26    30.34R
NASHVILLE      CLOUDY    42  32  67 NW14G24   30.25R

......ARKANSAS.......

CITY           SKY/WX    TMP DP  RH WIND       PRES   REMARKS
FAYETTEVILLE   CLEAR     38  28  67 N3        30.44R
FT SMITH       PTCLDY    44  29  55 CALM      30.45R
LITTLE ROCK    CLOUDY    47  31  53 N15G21    30.39R

......OKLAHOMA.......

CITY           SKY/WX    TMP DP  RH WIND       PRES   REMARKS
TULSA          MOCLDY    42  29  59 N5        30.48R
PONCA CITY     CLEAR     39  26  59 N3        30.49R
MCALESTER      MOCLDY    48  30  49 N8        30.45R
OKLAHOMA CITY  MOCLDY    47  27  45 N9        30.47R

......IOWA............

CITY           SKY/WX    TMP DP  RH WIND       PRES   REMARKS
DES MOINES     CLOUDY    32  21  64 N14G21    30.45R WCI  22
QUAD CITIES    CLOUDY    34  24  67 NW17G25   30.30R WCI  23

......ILLINOIS........

CITY           SKY/WX    TMP DP  RH WIND       PRES   REMARKS
QUINCY         CLOUDY    34  25  69 NW17      30.37R WCI  23
CHICAGO        CLOUDY    34  23  64 NW15      30.18R WCI  24



USA.gov is the U.S. government's official web portal to all federal, state and local government web resources and services.